Austin, TX

3:26 AM CDT on September 29, 2016 (GMT -0500)
Austin

Weather History for KATT - November, 2013

Change the Weather History Date:

Tuesday, November 19, 2013

  Actual Average Record
Temperature  
Mean Temperature 65 °F 60 °F  
Max Temperature 72 °F 70 °F 87 °F (1950)
Min Temperature 57 °F 49 °F 28 °F (1959)
Degree Days  
Heating Degree Days 0 7  
Month to date heating degree days 83 87  
Since 1 July heating degree days 103 118  
Cooling Degree Days 0 1  
Month to date cooling degree days 39 50  
Year to date cooling degree days 3440 3115  
Growing Degree Days 14 (Base 50)    
Moisture  
Dew Point 44 °F    
Average Humidity 49    
Maximum Humidity 67    
Minimum Humidity 31    
Precipitation  
Precipitation 0.00 in 0.09 in 2.10 in (1899)
Month to date precipitation 0.38 1.98  
Year to date precipitation 37.26 30.94  
Snow  
Snow 0.00 in - - ()
Month to date snowfall 0.0  
Since 1 July snowfall 0.0  
Since 1 September snowfall 0.0  
Snow Depth 0.00 in    
Sea Level Pressure  
Sea Level Pressure 30.07 in    
Wind  
Wind Speed 5 mph (ESE)    
Max Wind Speed 10 mph    
Max Gust Speed 15 mph    
Visibility 10 miles    
Events      
T = Trace of Precipitation, MM = Missing Value Source: NWS Daily Summary

Daily Weather History Graph

Daily Weather History Graph

Search for Another Location

Airport or City:

Trip Planner

Search our weather history database for the weather conditions in past years. The results will help you decide how hot, cold, wet, or windy it might be!

Date:

Astronomy

Nov. 19, 2013 Rise Set
Actual Time 7:00 AM CST 5:32 PM CST
Civil Twilight 6:34 AM CST 5:58 PM CST
Nautical Twilight 6:05 AM CST 6:27 PM CST
Astronomical Twilight 5:36 AM CST 6:55 PM CST
Moon 7:25 PM CST (11/19) 8:39 AM CST (11/19)
Length of Visible Light 11h 23m
Length of Day
10h 32m
Waning Gibbous, 96% of the Moon is Illuminated
Nov 19
Waning Gibbous
Nov 25
Last Quarter
Dec 2
New
Dec 9
First Quarter
Dec 17
Full

Hourly Weather History & Observations

Time (CST) Temp. Dew Point Humidity Pressure Visibility Wind Dir Wind Speed Gust Speed Precip Events Conditions
12:51 AM 64.9 °F 46.9 °F 52% 30.09 in 10.0 mi Calm Calm - N/A   Partly Cloudy
1:51 AM 64.0 °F 46.9 °F 54% 30.07 in 10.0 mi Calm Calm - N/A   Clear
2:51 AM 62.1 °F 43.0 °F 50% 30.08 in 10.0 mi NE 3.5 mph - N/A   Clear
3:51 AM 60.1 °F 43.0 °F 53% 30.08 in 10.0 mi Calm Calm - N/A   Clear
4:51 AM 57.9 °F 42.1 °F 56% 30.09 in 10.0 mi NNE 3.5 mph - N/A   Clear
5:51 AM 57.0 °F 42.1 °F 57% 30.10 in 10.0 mi NNE 5.8 mph - N/A   Partly Cloudy
6:51 AM 57.0 °F 42.1 °F 57% 30.12 in 10.0 mi Variable 3.5 mph - N/A   Mostly Cloudy
7:51 AM 57.9 °F 42.1 °F 56% 30.14 in 10.0 mi NE 3.5 mph - N/A   Partly Cloudy
8:51 AM 61.0 °F 42.1 °F 50% 30.16 in 10.0 mi Variable 3.5 mph - N/A   Overcast
9:51 AM 63.0 °F 39.9 °F 43% 30.16 in 10.0 mi East 6.9 mph - N/A   Scattered Clouds
10:51 AM 66.0 °F 41.0 °F 40% 30.14 in 10.0 mi East 6.9 mph - N/A   Clear
11:51 AM 68.0 °F 39.9 °F 36% 30.10 in 10.0 mi ESE 5.8 mph - N/A   Clear
12:51 PM 70.0 °F 41.0 °F 35% 30.05 in 10.0 mi North - - N/A   Clear
1:51 PM 71.1 °F 39.9 °F 32% 30.03 in 10.0 mi SE 4.6 mph - N/A   Clear
2:51 PM 72.0 °F 43.0 °F 35% 30.01 in 10.0 mi Variable 4.6 mph - N/A   Clear
3:51 PM 72.0 °F 44.1 °F 37% 30.00 in 10.0 mi Variable 5.8 mph - N/A   Clear
4:51 PM 69.1 °F 44.1 °F 40% 30.00 in 10.0 mi SE 6.9 mph - N/A   Clear
5:51 PM 66.0 °F 45.0 °F 47% 30.01 in 10.0 mi SE 5.8 mph - N/A   Clear
6:51 PM 64.9 °F 46.0 °F 50% 30.02 in 10.0 mi ESE 5.8 mph - N/A   Clear
7:51 PM 62.1 °F 46.0 °F 56% 30.03 in 10.0 mi SE 4.6 mph - N/A   Clear
8:51 PM 61.0 °F 46.9 °F 60% 30.03 in 10.0 mi ESE 4.6 mph - N/A   Clear
9:51 PM 59.0 °F 46.9 °F 64% 30.03 in 10.0 mi SE 4.6 mph - N/A   Clear
10:51 PM 59.0 °F 48.0 °F 67% 30.03 in 10.0 mi SE 6.9 mph - N/A   Clear
11:46 PM 59.0 °F 50.0 °F 72% 30.04 in 10.0 mi SSE 6.9 mph - N/A   Overcast
11:51 PM 59.0 °F 50.0 °F 72% 30.02 in 10.0 mi SSE 5.8 mph - N/A   Overcast